Weather History for KAXN - April, 2013

Change the Weather History Date:

Sunday, April 7, 2013

  Actual Average Record
Temperature  
Mean Temperature 36 °F -  
Max Temperature 39 °F 49 °F 76 °F (1988)
Min Temperature 32 °F 30 °F 5 °F (1997)
Degree Days  
Heating Degree Days 30    
Moisture  
Dew Point 30 °F    
Average Humidity 84    
Maximum Humidity 100    
Minimum Humidity 73    
Precipitation  
Precipitation 0.13 in - - ()
Sea Level Pressure  
Sea Level Pressure 29.85 in    
Wind  
Wind Speed 7 mph (East)    
Max Wind Speed 13 mph    
Max Gust Speed -    
Visibility 8 miles    
Events Rain    
Averages and records for this station are not official NWS values.
T = Trace of Precipitation, MM = Missing Value Source: NWS Daily Summary

Daily Weather History Graph

Daily Weather History Graph

Search for Another Location

Airport or City:

Trip Planner

Search our weather history database for the weather conditions in past years. The results will help you decide how hot, cold, wet, or windy it might be!

Date:

Astronomy

Apr. 07, 2013 Rise Set
Actual Time 6:49 AM CDT 7:58 PM CDT
Civil Twilight 6:19 AM CDT 8:28 PM CDT
Nautical Twilight 5:42 AM CDT 9:05 PM CDT
Astronomical Twilight 5:03 AM CDT 9:44 PM CDT
Moon 5:15 AM CDT (4/7) 5:25 PM CDT (4/7)
Length of Visible Light 14h 09m
Length of Day
13h 08m
Waning Crescent, 8% of the Moon is Illuminated
Apr 7
Waning Crescent
Apr 10
New
Apr 18
First Quarter
Apr 25
Full
May 2
Last Quarter

Hourly Weather History & Observations

Time (CDT) Temp. Windchill Dew Point Humidity Pressure Visibility Wind Dir Wind Speed Gust Speed Precip Events Conditions
12:53 AM 33.1 °F 23.9 °F 28.9 °F 85% 29.86 in 10.0 mi NW 12.7 mph - N/A   Overcast
1:53 AM 32.0 °F 23.0 °F 28.0 °F 85% 29.86 in 10.0 mi North 11.5 mph - N/A   Overcast
2:53 AM 32.0 °F 23.6 °F 28.0 °F 85% 29.86 in 10.0 mi North 10.4 mph - N/A   Overcast
3:53 AM 32.0 °F 25.6 °F 28.0 °F 85% 29.87 in 10.0 mi North 6.9 mph - N/A   Overcast
4:53 AM 32.0 °F 24.2 °F 27.0 °F 82% 29.89 in 10.0 mi NNW 9.2 mph - N/A   Overcast
5:53 AM 32.0 °F 26.4 °F 28.0 °F 85% 29.90 in 10.0 mi NNW 5.8 mph - N/A   Overcast
6:53 AM 32.0 °F 27.5 °F 28.0 °F 85% 29.92 in 10.0 mi NW 4.6 mph - N/A   Overcast
7:53 AM 32.0 °F - 27.0 °F 82% 29.93 in 10.0 mi Calm Calm - N/A   Overcast
8:30 AM 32.0 °F - 28.4 °F 87% 29.88 in 10.0 mi Calm Calm - N/A   Overcast
8:53 AM 32.0 °F - 28.0 °F 85% 29.93 in 10.0 mi Calm Calm - N/A   Overcast
9:26 AM 33.8 °F - 26.6 °F 75% 29.88 in 10.0 mi Calm Calm - N/A   Overcast
9:53 AM 34.0 °F - 27.0 °F 75% 29.93 in 10.0 mi Calm Calm - N/A   Overcast
10:53 AM 33.1 °F 30.0 °F 27.0 °F 78% 29.95 in 10.0 mi SSW 3.5 mph - N/A   Overcast
11:53 AM 34.0 °F 31.0 °F 28.0 °F 79% 29.94 in 10.0 mi SSE 3.5 mph - N/A   Overcast
12:41 PM 35.6 °F 29.9 °F 28.4 °F 75% 29.88 in 10.0 mi SE 6.9 mph - N/A   Overcast
12:53 PM 34.0 °F 28.0 °F 28.0 °F 79% 29.92 in 10.0 mi SSE 6.9 mph - N/A   Overcast
1:53 PM 35.1 °F 30.1 °F 28.9 °F 78% 29.91 in 10.0 mi SE 5.8 mph - N/A   Overcast
2:53 PM 36.0 °F 29.0 °F 28.9 °F 76% 29.87 in 10.0 mi SE 9.2 mph - N/A   Overcast
3:53 PM 37.0 °F 30.4 °F 30.0 °F 76% 29.85 in 10.0 mi SE 9.2 mph - N/A   Overcast
4:53 PM 39.0 °F 32.3 °F 30.9 °F 73% 29.84 in 10.0 mi SE 10.4 mph - N/A   Mostly Cloudy
5:29 PM 39.2 °F 32.0 °F 32.0 °F 75% 29.79 in 10.0 mi SE 11.5 mph - N/A   Scattered Clouds
5:53 PM 39.0 °F 32.3 °F 32.0 °F 76% 29.83 in 10.0 mi SE 10.4 mph - N/A   Scattered Clouds
6:53 PM 37.9 °F 32.7 °F 32.0 °F 79% 29.86 in 10.0 mi South 6.9 mph - N/A   Overcast
7:53 PM 37.9 °F 35.5 °F 33.1 °F 83% 29.83 in 9.0 mi ESE 3.5 mph - N/A   Overcast
8:05 PM 37.4 °F - 33.8 °F 87% 29.78 in 10.0 mi Calm Calm - N/A   Overcast
8:53 PM 37.0 °F 31.6 °F 34.0 °F 89% 29.82 in 4.0 mi East 6.9 mph - 0.02 in Rain Light Rain
9:26 PM 37.4 °F 34.9 °F 35.6 °F 93% 29.78 in 5.0 mi ESE 3.5 mph - 0.03 in Rain Light Rain
9:53 PM 37.0 °F 32.4 °F 35.1 °F 93% 29.82 in 3.0 mi East 5.8 mph - 0.06 in Rain Light Rain
10:53 PM 36.0 °F 30.3 °F 34.0 °F 93% 29.81 in 4.0 mi NE 6.9 mph - 0.03 in   Overcast
11:05 PM 35.6 °F 30.7 °F 35.6 °F 100% 29.76 in 2.5 mi NE 5.8 mph - 0.01 in   Overcast
11:21 PM 35.6 °F 29.2 °F 33.8 °F 93% 29.76 in 1.8 mi NE 8.1 mph - 0.02 in   Overcast
11:35 PM 35.6 °F 29.2 °F 33.8 °F 93% 29.75 in 2.5 mi NE 8.1 mph - 0.02 in   Overcast
11:43 PM 35.6 °F 29.2 °F 33.8 °F 93% 29.75 in 3.0 mi NE 8.1 mph - 0.02 in   Overcast
11:53 PM 36.0 °F 29.0 °F 34.0 °F 93% 29.80 in 4.0 mi NE 9.2 mph - 0.02 in   Overcast